Wind_Speed
34 36 36 36 37 38 38 36 36 36 37 37 35 35 34 34 34 34 35 35 35 35 36 36 37 38 38 38 37 35 35 36 36 37 38 38 38 38 38 39 41 41 42 41 41 41 41 40 39 39 39 39 39 39 38 38 38 37 37 36 36 37 37 37 37 38 39 39 39 39 39 39 39 39 38 37 35 34 34 35 35 35 36 36 36 36
35 36 36 35 35 36 37 36 35 35 36 36 36 35 35 36 36 37 36 35 34 34 35 36 37 38 38 38 36 36 36 37 38 38 37 37 37 38 39 41 42 43 42 41 40 40 39 39 39 39 39 38 38 37 37 36 36 36 36 37 37 38 37 37 38 39 39 39 38 37 37 37 38 38 38 37 36 35 35 34 34 34 35 35 35 34
35 36 35 34 33 34 35 35 35 35 35 36 36 37 37 37 38 37 35 33 33 34 36 39 40 40 40 40 40 40 39 38 37 37 36 37 38 40 41 43 43 43 42 40 39 38 38 38 38 38 37 36 36 35 35 35 35 35 36 37 38 38 38 39 39 39 39 39 38 37 36 36 37 38 38 37 36 36 35 34 34 34 34 34 33 32
33 34 34 33 33 33 34 35 36 36 36 36 37 38 38 37 36 35 33 33 35 37 38 40 40 40 40 40 40 39 38 36 35 35 36 38 40 42 43 44 43 42 40 38 37 36 36 36 36 35 35 35 34 34 34 34 35 36 37 38 38 39 40 40 40 39 39 39 38 37 37 36 36 36 37 36 36 35 35 34 33 33 33 33 32 31
32 32 33 34 33 34 34 35 35 35 35 36 36 37 36 35 34 33 34 35 36 38 38 38 37 37 37 37 36 36 35 35 35 36 37 39 42 43 43 42 40 39 37 36 35 35 34 34 34 34 34 34 34 33 34 35 36 37 38 39 40 40 40 40 40 39 39 38 37 37 37 36 36 36 36 36 35 34 34 33 33 33 33 32 31 30
32 33 33 33 34 34 35 35 34 34 35 35 35 35 33 32 32 34 36 37 37 37 37 36 35 35 34 34 34 34 34 35 36 37 40 42 43 42 41 38 37 35 35 34 33 33 33 33 33 33 33 33 33 34 35 36 38 39 40 41 41 41 41 40 39 38 38 37 37 37 36 36 36 35 35 35 35 34 34 33 33 33 33 31 30 29
34 33 33 34 35 35 35 35 35 35 35 34 33 32 32 33 34 36 36 36 36 36 36 36 35 35 34 34 33 34 35 36 38 40 41 42 41 39 37 36 35 34 33 33 32 32 32 33 33 33 33 33 34 35 37 39 40 41 42 42 41 41 40 39 38 37 37 36 36 36 36 35 35 35 35 35 34 34 34 34 33 33 31 30 29 28
36 35 35 34 35 35 35 35 35 33 32 31 32 33 35 36 37 37 36 36 37 37 37 37 36 35 34 34 34 34 36 37 39 40 40 39 38 37 36 35 34 34 33 32 32 32 32 33 32 32 33 34 36 39 41 42 43 43 42 41 40 39 38 37 36 35 35 34 34 34 34 34 34 34 34 35 34 33 33 32 32 30 28 27 27 27
36 36 36 35 35 35 35 33 30 28 28 30 33 35 38 38 37 37 38 38 38 38 37 37 36 36 35 34 34 35 36 37 38 38 38 37 37 37 36 35 34 33 32 31 31 31 31 31 32 33 35 38 41 43 44 44 43 42 41 39 37 36 35 34 33 33 32 32 32 32 32 32 33 33 34 34 33 32 32 31 30 28 26 26 26 26
35 36 36 36 34 31 29 28 28 29 32 34 35 35 36 36 37 38 40 41 41 39 37 36 36 35 35 35 35 35 36 37 37 38 37 37 37 37 36 35 33 32 31 30 29 30 31 32 34 37 40 43 45 45 44 42 40 38 36 35 34 33 32 32 32 31 31 31 31 31 31 31 32 32 32 32 31 31 30 29 27 26 25 25 26 26
35 35 33 30 27 26 26 28 32 35 35 36 36 36 34 33 35 38 41 43 42 41 38 36 34 34 34 34 34 34 35 36 38 39 39 38 37 36 34 32 31 29 30 30 32 33 35 38 40 43 44 45 44 41 39 37 35 33 32 31 31 31 31 31 31 30 30 30 30 30 30 30 31 31 30 30 29 29 28 26 25 25 25 26 26 26
34 30 26 24 25 27 30 32 34 35 35 35 35 35 35 35 36 37 38 41 41 40 37 36 35 34 33 33 34 35 36 38 40 41 40 39 37 34 31 29 29 31 33 35 37 39 41 42 42 42 42 40 37 35 33 32 31 30 29 29 30 30 30 30 30 29 29 30 30 30 31 30 30 30 29 28 28 27 26 26 27 27 27 27 27 27
28 25 25 28 30 31 32 32 33 33 33 33 33 35 37 39 39 38 37 38 38 37 36 35 35 35 34 34 34 36 38 40 41 40 38 34 30 27 27 30 34 36 38 39 41 43 43 42 40 39 37 35 33 31 30 30 30 29 29 30 30 31 31 31 30 30 31 31 32 32 32 31 30 29 29 28 27 27 27 29 29 30 29 29 28 28
24 26 29 31 31 31 31 31 32 32 33 33 34 36 38 39 38 37 35 35 35 35 35 35 36 35 34 34 34 35 37 37 37 35 32 29 27 27 30 35 38 40 41 41 42 43 42 40 38 37 35 33 32 31 30 30 30 30 30 31 31 32 32 32 32 33 34 34 34 33 33 32 30 30 29 29 29 29 30 31 32 32 31 30 29 29
26 29 30 30 31 31 31 31 32 33 34 36 36 37 38 37 35 34 33 34 35 35 35 36 36 35 34 33 32 32 32 31 30 30 29 29 30 32 34 39 42 43 43 41 40 40 39 37 36 36 35 34 33 32 31 31 32 32 32 32 33 33 33 34 35 36 37 36 35 34 32 31 31 31 31 31 32 32 33 33 33 33 32 31 30 30
29 29 30 30 31 31 32 32 33 35 36 37 37 36 35 34 33 32 32 34 33 33 34 34 35 35 35 32 30 27 25 25 27 29 32 34 36 36 37 38 40 42 41 38 37 36 36 36 36 36 36 35 34 32 32 33 33 34 34 34 34 35 36 36 37 38 38 37 35 33 31 32 32 33 34 34 35 35 35 34 34 33 32 32 31 31
30 30 30 31 32 33 34 34 35 35 36 35 35 33 32 31 32 32 32 33 32 32 33 31 31 33 33 33 30 26 24 26 30 35 37 39 39 38 36 36 37 38 37 35 34 34 35 36 37 37 36 35 34 33 33 33 34 35 35 35 35 36 37 38 38 37 36 34 33 32 33 34 35 35 36 36 36 36 35 34 34 33 32 32 31 32
31 30 31 32 34 35 35 35 35 34 34 34 33 32 31 31 31 32 33 33 33 34 34 34 34 33 32 33 31 29 28 31 35 38 39 39 38 36 33 33 34 35 35 34 35 35 35 36 37 36 36 35 33 32 33 34 35 35 36 36 37 37 38 38 38 38 37 36 35 35 36 36 36 36 36 36 36 35 35 34 33 33 32 32 32 32
31 32 33 34 35 35 35 34 33 32 32 32 31 31 32 32 33 34 34 34 34 33 34 33 33 33 33 33 34 33 32 32 34 36 37 37 36 34 32 31 32 33 34 34 35 36 38 39 38 37 34 32 31 31 33 34 35 36 36 37 37 37 37 38 38 38 38 37 37 37 37 37 36 36 36 35 35 35 34 34 33 32 32 32 32 33
33 34 33 34 34 34 34 33 32 31 31 31 32 33 34 35 35 35 34 34 33 33 32 32 33 33 33 34 35 34 32 32 32 34 35 36 36 35 32 30 31 34 35 36 38 39 39 39 37 35 32 31 31 32 34 35 36 36 36 37 37 37 37 37 37 37 37 37 36 36 36 36 35 35 35 35 35 35 35 34 33 32 31 32 32 33
35 35 34 33 33 33 32 33 32 32 32 32 34 35 36 35 35 35 34 33 33 32 32 31 32 33 33 34 35 34 33 32 32 33 33 35 34 33 31 30 32 35 36 36 36 36 36 36 34 33 32 33 34 35 35 35 35 36 36 36 36 36 36 36 36 36 35 35 35 34 34 34 35 35 35 36 36 35 34 33 31 31 31 32 33 33
34 35 34 33 33 33 33 34 34 33 33 34 35 35 34 34 35 34 34 33 33 33 33 33 34 35 36 37 37 35 34 33 34 34 34 34 34 33 32 31 32 33 34 35 36 35 34 33 33 34 34 35 35 35 35 36 36 36 36 35 35 34 34 35 35 35 34 34 34 34 34 34 35 36 37 36 35 33 32 32 32 32 32 33 33 34
34 34 34 33 32 32 32 33 34 35 36 36 35 35 35 35 35 34 34 35 35 35 35 37 38 38 38 37 36 35 34 33 33 33 32 33 33 33 32 31 32 33 33 34 34 33 33 33 34 34 35 35 36 36 37 37 36 36 35 35 34 34 33 33 33 32 32 33 34 34 35 36 36 36 35 35 34 33 33 33 33 34 34 34 34 35
32 32 32 31 31 30 31 32 34 36 36 35 34 34 34 35 35 35 35 36 37 37 38 39 40 38 35 32 32 32 32 30 30 30 30 31 32 33 32 32 31 31 32 33 33 33 34 35 35 36 37 38 38 38 38 37 36 35 35 34 34 33 33 32 32 31 32 33 34 35 36 37 36 36 35 35 35 35 34 34 34 34 35 35 35 35
29 30 30 30 30 31 32 33 34 35 35 33 32 32 32 33 34 35 35 36 36 37 38 38 36 33 31 30 31 31 30 28 27 27 29 30 32 33 32 30 30 32 33 34 33 34 35 36 37 37 37 38 38 38 38 36 35 34 34 33 33 33 33 34 34 34 34 35 35 35 36 35 35 35 35 35 35 34 34 34 34 34 34 34 34 35
29 29 30 31 32 33 34 35 34 34 33 32 31 31 31 32 34 35 35 35 35 35 35 33 32 31 31 31 31 31 30 28 27 28 29 30 31 33 32 30 30 32 33 34 34 34 35 35 36 36 37 38 38 38 37 36 34 33 33 32 32 33 33 34 34 35 35 36 36 36 36 36 35 35 35 35 35 34 34 34 34 34 34 34 34 34
30 31 32 33 34 34 34 34 33 32 32 31 30 29 29 31 33 34 35 34 34 33 32 32 31 31 31 30 30 30 30 29 28 28 28 29 30 31 31 31 30 31 32 34 34 34 34 35 36 36 37 38 38 37 35 34 33 33 32 32 32 33 33 34 35 35 35 36 36 36 36 36 36 36 35 36 35 35 35 35 35 35 35 34 34 34
32 33 33 34 34 34 34 33 33 32 32 31 30 29 28 30 31 33 33 33 33 33 32 31 30 30 30 31 31 31 31 30 29 28 27 27 28 29 30 30 30 31 32 34 35 35 34 35 35 35 35 35 35 34 33 33 33 33 33 33 33 34 34 35 35 35 36 36 36 36 36 36 35 35 35 36 36 37 37 37 37 36 36 35 34 34
34 34 34 34 34 34 34 34 34 33 32 31 30 28 28 29 30 31 32 33 33 32 31 31 30 30 31 32 33 33 32 29 27 26 25 26 27 29 31 31 30 31 32 33 35 35 33 32 31 31 32 31 31 32 32 34 35 35 35 35 35 35 35 35 36 36 36 35 35 35 35 34 34 35 36 36 38 39 39 38 38 37 36 36 35 35
36 36 36 35 35 35 34 35 34 33 32 32 31 29 29 29 30 31 32 32 32 31 31 31 31 31 32 32 32 32 30 28 25 25 26 27 28 30 31 30 31 31 31 32 32 32 32 31 29 27 27 29 30 32 33 34 35 36 37 37 36 36 36 36 36 36 35 35 35 35 34 34 35 37 38 39 39 39 38 36 35 35 35 35 36 36
37 36 36 35 35 35 34 34 33 33 33 32 32 31 30 30 30 31 31 30 31 31 31 31 32 32 32 31 30 29 29 29 28 28 29 29 30 31 31 31 32 32 31 30 28 28 29 32 30 28 28 29 31 33 33 34 35 35 35 35 35 36 36 36 36 35 35 35 35 35 36 37 37 38 38 38 36 35 33 32 31 31 32 33 34 36
35 35 34 35 35 35 33 33 33 33 33 32 32 31 30 30 30 30 30 30 31 32 32 32 33 33 33 32 31 29 30 31 32 32 31 31 31 32 32 32 32 32 32 30 30 29 28 31 32 32 32 32 32 32 33 33 34 34 33 34 35 37 37 37 37 36 37 37 37 37 37 37 37 36 34 32 30 28 27 26 27 28 29 31 32 34
35 35 34 35 35 34 33 32 32 32 32 32 31 31 31 30 30 29 30 31 32 32 32 32 33 33 34 34 33 33 33 33 33 32 31 32 32 32 32 33 33 33 32 31 31 31 30 32 34 35 35 34 33 32 32 33 33 33 33 34 37 40 40 39 39 38 38 38 38 37 36 35 33 31 28 26 25 23 23 22 22 24 26 28 30 32
35 35 35 35 34 33 33 32 32 32 31 31 31 30 31 30 30 31 31 32 33 33 32 32 33 33 34 34 33 33 33 34 34 33 32 33 34 34 34 34 34 33 33 32 31 31 32 33 34 34 34 35 34 33 31 31 32 33 35 37 39 41 41 41 39 38 37 36 35 34 33 31 29 27 25 23 22 21 20 19 18 19 22 25 27 29
35 35 34 33 33 32 32 32 32 31 31 31 31 30 30 31 31 32 33 33 33 33 32 32 33 33 34 34 34 35 35 36 35 34 34 34 36 36 36 36 35 33 34 33 33 32 31 32 33 33 34 34 34 33 32 32 33 36 38 39 39 39 39 38 37 35 35 34 33 32 31 29 28 26 24 23 21 20 19 18 17 17 19 22 25 27
34 34 33 32 32 31 31 31 31 31 31 31 31 31 31 32 32 33 33 34 33 33 33 33 33 33 33 34 35 36 37 37 36 34 33 34 35 37 37 37 37 36 36 35 34 33 32 33 33 34 34 33 32 33 34 36 37 38 38 38 38 38 37 36 34 34 33 33 33 32 31 29 28 27 25 23 21 19 19 18 17 17 18 20 24 26
32 32 31 31 31 31 31 31 31 31 31 31 32 33 33 34 34 34 34 34 34 34 33 33 33 33 33 33 34 35 37 37 35 33 31 31 33 35 37 37 37 37 36 35 35 35 34 33 34 33 32 30 30 32 36 39 39 38 38 38 38 37 36 34 33 33 33 34 34 33 32 30 29 27 25 23 21 19 18 17 16 16 17 19 22 26
31 31 31 31 31 31 31 31 31 32 32 32 33 34 34 35 35 35 35 35 34 34 34 34 34 34 33 34 34 35 35 35 34 32 30 29 30 32 35 37 37 36 35 35 35 35 35 34 33 32 30 30 32 35 38 38 38 37 38 38 37 36 35 34 33 33 34 34 34 33 31 30 28 27 25 23 21 20 18 16 15 15 16 17 21 25
31 31 31 31 31 31 31 31 31 32 33 33 34 34 35 35 35 35 34 34 34 34 34 34 34 34 34 35 35 35 35 34 32 31 29 29 29 30 33 35 35 34 33 32 32 33 35 34 32 31 30 32 35 37 38 37 37 37 38 38 37 36 34 34 34 34 34 34 34 32 30 28 26 25 24 22 21 20 19 17 15 14 14 15 18 22
31 31 31 31 32 32 31 32 32 33 33 34 34 35 35 35 34 34 33 33 34 34 33 33 34 35 35 36 36 35 34 32 31 30 29 29 29 29 29 31 32 31 31 30 31 32 33 33 33 33 33 35 36 37 37 36 36 35 36 36 36 36 36 35 34 34 33 33 32 31 29 26 24 23 22 20 19 18 17 15 13 12 11 12 14 17
31 31 31 31 32 32 32 32 33 34 34 34 34 34 34 34 34 33 33 34 33 33 33 34 35 36 36 37 36 35 33 31 30 29 29 29 28 27 26 26 27 28 29 30 30 31 31 32 34 35 35 35 35 35 34 33 33 33 33 33 35 37 38 36 35 33 32 31 29 28 26 24 23 21 19 18 16 14 12 11 9 8 7 8 10 12
31 32 32 32 32 32 32 33 34 34 33 33 33 33 33 33 33 34 34 34 33 33 34 35 36 37 38 37 36 34 32 31 30 30 29 28 26 24 23 23 24 26 27 29 30 31 31 32 32 33 32 32 32 32 32 32 31 31 31 32 35 37 37 36 33 31 30 28 26 24 22 21 20 19 18 17 15 14 12 10 8 6 4 4 5 8
31 32 33 33 33 32 33 33 33 33 32 32 32 33 33 33 33 33 33 34 34 35 36 37 37 37 37 37 35 33 32 31 30 29 28 26 24 22 22 23 24 26 27 28 29 30 30 29 28 27 26 26 26 28 30 30 31 31 32 32 34 35 36 35 32 28 26 25 22 21 19 19 18 17 17 17 17 16 14 12 10 8 6 4 2 3
31 32 32 33 33 33 33 33 33 32 32 33 33 33 33 33 34 34 34 34 34 35 37 37 37 37 36 34 33 32 32 32 31 30 28 25 23 22 23 24 25 25 25 26 26 26 26 25 24 22 21 21 22 24 27 29 30 32 32 32 32 33 33 33 30 27 25 22 20 18 18 17 18 18 17 18 18 18 17 15 13 10 7 5 3 1
31 32 32 33 33 33 33 33 33 33 33 33 34 34 33 34 34 34 33 34 35 36 37 37 36 34 32 32 32 32 33 33 32 30 28 26 25 25 25 24 24 24 24 23 22 21 21 21 20 20 19 19 20 22 25 27 29 31 33 33 32 31 30 28 26 25 24 22 20 18 17 17 18 19 19 20 20 20 20 18 15 11 8 4 1 1
31 32 33 34 33 33 32 33 33 33 32 33 34 34 34 34 34 34 34 35 36 36 36 35 33 32 31 32 32 32 33 33 32 30 29 29 29 27 25 23 23 22 22 20 18 17 16 17 18 19 19 19 20 21 23 26 28 31 32 32 31 29 27 24 22 21 21 21 20 19 18 18 19 21 22 23 23 22 21 20 17 13 8 3 1 5
32 32 33 33 33 33 33 33 33 32 32 33 34 34 34 34 34 34 35 35 35 35 35 34 33 32 31 31 32 32 32 31 30 30 31 31 29 26 23 22 21 21 19 17 15 14 14 15 16 16 17 18 20 22 23 25 27 29 31 30 29 27 25 23 21 19 19 19 19 19 19 20 21 23 24 25 26 26 24 22 19 15 10 5 1 4
32 32 33 33 33 33 33 32 32 32 32 33 34 35 34 34 34 34 35 35 35 34 34 33 32 32 31 30 30 30 29 28 29 30 31 30 27 25 23 22 22 20 18 15 13 12 12 13 13 13 13 15 18 21 24 26 28 29 29 29 27 25 23 21 19 19 19 19 19 20 20 21 23 24 25 26 28 29 29 27 23 19 14 10 5 2
32 32 32 33 33 33 33 33 32 32 33 34 35 35 34 34 34 34 34 34 34 33 33 33 32 31 30 30 29 28 27 27 28 30 30 28 26 24 23 22 22 21 19 17 13 10 8 9 9 9 10 13 17 20 24 26 28 28 28 27 26 24 22 20 19 19 19 20 20 21 21 22 23 25 26 27 29 30 31 32 29 25 20 15 10 6
32 32 32 32 32 33 33 33 33 33 34 34 35 36 36 35 35 35 34 34 33 33 32 32 31 30 29 28 28 28 27 28 29 29 28 26 24 23 22 22 22 23 22 20 17 14 10 7 6 6 10 14 18 21 24 26 28 28 27 26 24 22 20 19 19 19 20 21 21 22 23 24 25 27 28 28 29 31 32 34 35 32 27 21 14 9
32 33 33 32 33 33 33 34 33 33 34 35 35 36 36 36 36 36 35 34 34 33 32 31 30 28 27 27 27 27 27 27 28 28 27 25 23 22 21 21 21 23 24 24 23 21 19 16 13 11 12 15 18 21 23 26 28 29 29 27 24 21 19 19 19 19 20 21 22 23 24 25 27 28 29 29 29 30 32 34 37 38 35 29 22 15
Wind_Direction
296 298 299 300 300 300 300 300 301 300 300 300 299 298 298 297 296 295 296 297 298 299 299 299 298 297 296 294 293 291 290 289 289 289 291 292 293 293 294 295 295 295 294 292 290 289 288 288 288 288 288 288 288 287 287 286 285 284 284 284 283 281 281 284 287 288 288 286 284 281 280 279 278 279 280 281 280 277 275 274 275 275 275 275 275 274
298 298 299 300 300 300 300 301 301 300 299 299 299 298 297 297 296 295 296 296 298 300 302 302 302 301 299 296 292 288 286 287 288 290 292 293 293 294 294 294 294 294 292 291 289 288 288 288 289 288 288 288 287 287 286 285 285 285 285 284 283 283 284 286 288 288 287 285 283 281 279 276 275 275 276 276 276 275 275 275 276 275 274 273 273 272
299 300 300 300 300 299 299 301 301 300 299 298 298 298 298 297 295 295 296 298 301 303 304 305 304 303 300 297 293 290 288 289 290 291 292 292 293 293 294 294 293 293 292 290 289 288 288 287 287 287 287 286 286 285 284 285 286 286 285 284 284 285 286 287 288 287 286 284 283 281 279 276 274 273 272 272 272 273 274 275 275 273 271 270 270 270
298 299 300 301 300 299 298 299 300 300 299 298 298 298 298 296 295 296 298 302 305 306 305 305 304 302 300 297 295 294 293 292 293 292 292 292 293 293 293 293 293 292 292 291 290 289 288 288 287 287 287 286 285 284 284 286 287 287 286 285 285 286 287 287 287 286 284 283 282 280 278 277 275 272 271 270 271 272 273 274 272 270 268 267 268 269
297 298 299 300 300 299 299 299 299 299 299 298 298 298 298 298 299 301 304 306 306 306 306 305 303 301 300 298 297 296 295 295 294 293 292 293 293 294 294 295 294 294 293 292 291 291 290 289 288 287 286 285 284 285 286 287 288 288 287 287 287 287 287 287 286 285 283 282 280 279 277 276 275 273 271 270 271 273 272 271 268 266 265 266 267 268
298 298 299 299 298 297 298 298 298 298 298 298 299 300 302 304 305 306 307 307 307 306 306 305 303 302 300 298 297 296 296 295 294 293 293 294 295 296 298 297 297 295 294 293 293 292 291 289 288 286 285 285 285 287 288 289 289 289 289 288 288 288 287 286 285 284 282 280 278 277 276 275 274 272 271 272 272 272 271 269 266 264 264 266 267 268
299 298 297 296 296 296 296 296 296 296 297 299 303 306 308 308 308 307 307 307 307 308 307 305 304 302 300 299 297 296 295 295 294 294 295 297 298 300 300 299 297 296 295 294 293 291 290 288 286 285 285 286 287 288 289 289 289 289 289 288 288 287 286 285 284 282 281 279 277 275 274 273 272 271 271 271 271 271 269 267 266 265 266 266 267 269
298 297 296 295 295 294 294 294 294 297 300 304 308 310 310 309 308 307 307 308 308 308 307 305 303 301 300 298 297 296 296 296 296 297 298 299 300 300 299 298 297 295 294 293 292 290 288 287 286 286 287 288 289 289 289 289 289 289 288 288 287 286 285 284 283 281 280 278 277 275 274 272 271 270 269 269 269 269 267 267 268 268 267 268 269 269
296 296 295 294 292 292 294 295 298 303 307 310 310 309 309 308 308 308 309 308 307 307 306 304 302 301 299 298 297 297 297 297 298 298 297 297 298 298 297 296 295 294 293 292 290 289 288 288 288 288 288 289 290 290 290 290 289 288 288 287 286 285 285 284 283 282 280 279 277 275 273 272 270 268 267 267 267 267 267 269 269 269 269 270 271 271
293 292 292 291 292 293 298 302 306 308 310 310 309 308 307 308 309 309 309 307 306 306 304 303 301 299 299 299 298 298 299 299 299 298 297 296 295 295 294 293 293 292 292 292 291 291 290 289 289 289 290 290 291 291 291 290 289 288 287 287 286 286 286 285 284 282 281 279 277 276 273 271 269 267 266 265 265 266 266 268 269 270 271 273 274 274
292 291 290 293 297 302 306 307 308 308 309 309 309 307 306 306 308 308 308 307 306 305 304 301 299 298 298 298 299 298 298 298 299 299 298 297 296 294 293 293 293 293 294 294 294 292 292 291 291 291 292 293 293 293 292 291 291 290 289 289 289 288 287 286 284 283 281 280 278 276 274 272 270 268 267 267 266 267 268 269 272 274 275 276 276 276
290 292 295 301 306 308 308 307 307 308 309 309 308 307 306 306 307 307 306 305 304 304 303 301 299 298 296 296 298 299 299 299 299 299 298 297 296 295 295 296 298 299 298 297 295 294 294 294 294 294 295 296 296 295 295 294 293 292 291 291 290 289 289 287 286 284 283 282 281 280 277 273 271 271 271 269 269 269 271 275 277 278 278 277 277 276
292 298 305 308 308 308 307 308 308 308 308 308 307 307 307 307 307 306 304 302 301 300 299 298 298 297 297 297 298 299 300 300 300 298 296 294 294 296 300 302 303 301 299 298 297 296 297 297 297 298 299 300 300 299 298 297 295 294 293 292 292 291 290 290 288 286 285 284 282 280 277 275 274 274 274 273 273 273 275 278 279 279 278 277 276 276
303 308 310 309 308 307 307 308 307 307 306 306 306 306 306 306 307 305 303 300 299 298 298 296 296 296 297 298 300 301 301 300 298 295 293 293 296 300 304 304 302 300 299 297 297 298 299 300 301 302 303 304 304 303 302 300 298 297 295 295 294 292 291 290 288 286 285 283 281 278 278 278 278 278 278 277 277 277 278 278 278 278 276 275 274 274
312 313 311 309 308 307 307 307 306 305 305 305 305 306 306 306 306 304 302 300 299 299 299 298 298 298 298 300 303 304 302 297 294 294 295 298 300 302 303 302 300 299 298 297 297 298 300 300 301 303 305 305 305 304 303 302 300 297 295 294 292 290 290 289 287 286 284 281 279 279 279 280 281 281 281 280 279 279 278 279 278 276 275 273 273 272
314 313 310 309 307 307 306 306 306 305 305 305 306 306 306 305 305 304 302 300 300 300 301 301 302 302 302 303 305 305 302 299 299 300 301 301 300 300 301 300 299 298 297 296 296 296 299 300 302 304 304 304 304 303 302 300 298 295 293 291 290 290 289 288 287 284 283 281 280 280 281 282 283 283 282 281 280 279 279 278 277 275 274 273 272 273
313 311 309 307 306 306 306 306 305 304 304 305 305 305 304 303 303 303 302 302 303 303 303 303 303 304 304 305 305 305 304 305 304 303 301 299 299 299 300 299 297 296 296 295 294 295 297 300 303 304 303 302 301 300 299 297 295 294 292 291 290 290 289 288 287 286 286 284 283 282 282 282 283 283 282 281 280 279 278 277 275 273 272 272 273 274
310 309 307 306 306 305 305 305 305 304 305 305 305 305 304 303 303 304 304 305 305 304 304 303 302 301 302 303 303 302 303 304 303 301 300 298 298 299 300 299 296 295 294 294 294 295 297 301 302 301 302 301 299 298 297 296 294 293 292 291 290 289 289 288 288 289 289 288 287 286 285 284 283 282 281 280 279 278 276 274 272 271 271 272 274 275
308 307 306 305 305 304 304 304 304 304 305 305 305 305 305 305 306 306 305 304 303 302 301 301 300 299 299 299 299 300 302 301 300 300 298 297 298 300 301 299 296 294 293 294 295 298 300 303 305 305 303 301 299 298 296 295 294 293 292 291 290 290 289 288 288 289 289 289 288 287 286 285 283 282 281 279 277 276 274 271 270 269 270 273 274 275
306 305 304 304 303 303 303 303 303 304 304 305 306 307 307 307 306 305 303 302 301 299 298 297 297 297 297 297 298 300 301 302 301 299 298 297 298 299 300 298 296 295 294 295 297 300 302 304 305 304 301 299 297 295 294 294 293 292 292 292 291 291 291 290 290 290 290 289 288 287 286 285 283 282 280 278 276 274 272 270 269 269 271 273 274 273
303 303 302 303 302 301 300 302 304 305 305 307 309 309 308 306 305 303 302 301 300 299 298 296 295 296 297 297 298 299 300 301 301 299 297 297 296 297 298 298 297 295 295 295 296 298 300 301 301 300 297 296 295 294 293 292 292 292 293 293 294 294 293 293 292 291 290 289 288 286 285 284 283 281 279 278 276 274 272 271 271 272 273 273 272 270
301 301 303 304 303 302 302 304 306 307 307 309 309 308 306 304 303 302 302 301 301 299 298 297 296 296 296 296 296 298 299 301 300 299 297 295 294 295 297 298 296 294 293 294 297 298 299 298 297 295 294 294 293 293 293 293 293 294 295 296 296 297 296 294 293 292 291 289 288 287 285 283 282 281 279 279 277 276 275 275 275 275 274 273 270 267
303 302 304 305 305 304 305 305 306 307 308 308 307 305 303 302 302 302 302 301 300 299 298 297 297 296 296 295 296 298 300 301 301 299 295 293 293 295 298 298 297 295 294 295 297 298 297 296 294 294 293 293 292 293 294 295 295 295 296 295 295 296 296 295 294 293 292 291 289 288 286 284 282 282 281 281 280 280 279 278 277 276 274 271 268 265
307 306 305 305 304 304 304 304 305 306 307 307 305 304 303 302 302 301 301 300 300 300 299 299 298 297 296 296 298 299 300 300 300 297 293 290 291 294 298 299 298 296 295 296 297 296 296 295 294 294 294 294 295 296 297 298 296 295 295 293 293 293 293 293 293 293 292 291 290 288 286 285 284 284 283 282 282 281 280 278 277 275 273 270 266 263
309 307 305 303 302 302 302 303 304 305 305 305 304 303 303 303 303 302 302 301 301 301 300 299 297 296 297 299 300 300 300 300 299 297 293 292 293 295 297 297 296 295 296 296 297 297 296 296 296 296 295 296 297 298 299 298 296 295 294 294 293 292 291 291 290 290 290 289 288 286 285 284 284 283 282 282 281 280 279 278 276 274 272 269 266 263
307 305 303 302 302 302 303 304 304 305 305 305 305 305 305 305 305 304 303 302 302 301 300 298 297 297 299 300 299 299 301 302 300 298 295 294 294 295 296 297 296 295 296 297 297 298 297 296 296 296 295 296 297 299 300 301 300 298 296 295 294 292 291 290 290 289 288 287 286 285 284 283 282 282 281 280 280 280 279 277 275 273 271 269 267 264
308 306 304 304 305 306 307 307 307 307 308 308 308 307 307 307 305 303 301 301 301 301 300 298 298 298 299 299 299 300 301 302 301 299 298 295 293 293 295 297 298 297 297 297 297 298 297 295 294 295 295 296 299 301 302 302 302 300 296 295 293 292 291 290 289 289 288 287 286 284 283 282 282 281 281 280 279 278 277 275 273 272 270 268 266 264
311 310 310 311 311 312 312 311 311 311 312 311 311 310 309 307 304 301 300 301 302 301 299 297 297 298 299 299 300 300 301 301 301 301 301 297 293 292 295 299 299 298 298 298 298 298 296 294 294 295 296 298 300 301 301 301 300 298 295 294 293 292 291 290 289 289 288 287 287 285 284 283 282 281 280 279 278 277 275 274 272 270 268 266 264 262
315 316 316 317 317 317 316 315 315 315 315 315 314 313 311 307 303 300 301 303 303 301 298 297 298 298 298 299 300 301 301 301 302 303 304 300 295 294 297 299 300 299 300 300 300 300 297 295 295 297 298 299 299 299 298 298 298 297 296 295 294 293 294 293 292 291 290 290 289 287 286 284 282 280 279 279 278 277 275 273 271 268 266 264 262 260
318 319 319 320 319 319 318 317 317 317 317 317 316 314 312 309 305 304 304 304 303 300 299 299 299 299 299 300 301 301 301 301 303 305 304 301 297 296 298 299 300 300 301 302 302 302 300 299 299 298 299 299 298 297 296 296 297 297 298 298 297 296 297 296 296 295 293 291 289 287 286 284 282 282 281 281 280 278 275 272 269 266 264 262 260 258
319 319 318 318 318 319 318 317 316 317 317 317 317 315 313 311 309 307 306 304 302 300 299 299 299 298 299 298 299 299 299 301 303 305 305 301 297 297 299 299 300 300 302 302 301 301 302 303 303 302 301 300 298 298 297 297 298 298 298 298 297 298 298 298 297 295 293 292 289 287 286 285 285 285 285 284 282 279 275 271 267 264 261 259 258 256
318 317 316 317 318 318 317 316 316 317 317 316 315 315 314 312 310 308 307 305 304 302 300 299 298 298 297 296 295 295 296 298 302 305 305 301 297 297 299 299 299 300 301 301 298 297 299 302 303 304 303 302 300 299 299 300 300 299 299 298 298 298 299 299 298 295 293 292 291 290 290 290 291 290 290 288 286 282 278 272 267 262 259 257 256 255
318 318 317 318 319 319 317 317 316 316 316 315 314 314 313 312 311 309 308 307 307 305 302 300 298 298 297 296 294 293 294 297 301 305 305 301 298 297 299 299 300 300 301 300 298 296 295 297 300 303 303 303 302 301 301 301 301 301 300 299 299 300 300 300 299 297 296 296 296 297 298 299 299 298 297 295 292 288 283 276 268 261 257 255 254 254
318 318 319 320 320 319 318 317 316 316 315 314 314 313 313 312 312 311 310 310 309 307 304 302 300 298 298 297 295 294 295 297 303 307 306 302 299 298 300 300 300 301 301 300 299 298 297 297 298 301 302 303 303 302 301 301 301 301 300 300 300 301 302 302 302 302 302 303 304 305 306 307 307 306 304 301 297 293 289 282 272 261 253 251 250 250
319 320 320 320 319 318 317 317 316 315 315 314 314 314 313 313 313 313 312 312 310 309 307 305 303 301 299 297 295 295 297 301 306 311 310 306 302 301 301 300 300 301 300 299 299 300 299 299 299 300 301 302 302 302 302 301 301 301 302 302 302 302 304 306 307 308 309 311 311 312 314 315 314 313 310 307 304 300 295 289 278 264 251 245 245 246
319 320 320 319 319 318 317 316 316 316 315 315 315 315 315 315 314 314 314 313 313 311 309 309 308 306 303 300 297 297 299 305 311 315 315 312 309 304 301 300 300 301 299 298 299 299 300 300 301 301 301 301 302 303 303 303 303 304 304 305 306 307 309 311 313 315 315 316 317 318 319 320 319 317 316 313 310 306 301 294 285 272 256 245 242 242
319 318 319 318 318 317 317 317 316 316 316 316 317 317 317 316 316 315 315 316 316 315 314 313 312 311 309 307 304 303 306 311 315 318 319 318 314 308 302 301 302 302 299 297 298 300 301 301 301 301 301 301 302 303 304 305 306 307 307 308 310 312 314 318 321 321 321 320 321 322 323 322 322 320 319 317 315 311 304 296 287 276 263 250 241 238
319 318 318 318 318 318 318 317 317 317 317 317 317 317 317 317 317 317 317 318 318 317 316 314 314 313 313 313 313 313 314 316 318 320 322 321 317 312 306 303 303 303 301 300 301 303 303 300 300 301 302 303 303 302 303 305 307 308 310 314 316 318 320 323 325 326 325 324 325 325 325 325 324 323 321 320 319 315 310 301 290 278 267 255 244 238
319 318 318 318 318 318 318 317 318 318 318 318 318 318 317 318 319 319 318 318 318 317 316 315 314 315 316 317 318 319 319 320 321 323 323 323 320 315 310 305 303 304 305 306 307 307 304 300 299 301 304 304 303 302 303 305 307 310 314 318 321 323 325 327 327 328 328 328 328 328 328 328 327 326 325 325 323 321 317 310 300 287 274 261 250 241
319 318 318 318 319 319 319 318 318 319 319 319 319 319 319 320 320 319 319 318 318 317 317 316 317 317 318 319 320 321 321 322 324 325 325 324 322 318 313 308 306 307 310 311 311 309 305 301 299 300 301 301 301 301 303 306 309 313 317 318 319 322 328 330 331 331 332 331 331 332 332 332 332 331 331 330 330 328 324 317 307 292 278 265 254 246
319 318 318 319 319 320 320 319 320 320 320 320 320 320 320 320 320 319 320 319 319 318 319 320 320 320 320 321 321 322 322 323 325 326 326 325 323 320 317 313 312 313 314 312 310 307 303 300 299 299 300 299 300 301 304 308 313 317 319 317 318 323 329 332 334 335 335 335 335 336 337 337 337 338 340 342 343 343 340 331 319 302 280 264 254 248
319 319 319 320 320 321 321 321 322 322 322 321 320 320 321 321 321 321 320 319 319 320 321 322 321 320 319 320 321 322 322 324 325 327 327 326 325 323 320 318 317 317 315 313 309 306 303 301 300 300 301 302 303 304 306 312 318 322 322 321 322 326 329 333 337 339 338 339 341 343 344 344 345 348 353 358 3 7 7 2 356 347 328 292 264 251
320 320 320 321 322 322 322 323 323 323 323 322 321 321 322 323 322 322 320 319 319 321 322 323 322 320 318 318 319 320 322 325 327 329 329 329 327 325 323 320 319 318 317 315 311 308 306 305 304 304 306 308 308 308 310 315 321 325 327 327 326 324 322 329 337 343 344 346 349 351 353 353 355 360 7 13 17 19 21 22 25 27 25 15 338 271
321 321 322 323 323 324 324 324 324 324 323 322 321 322 324 325 325 323 321 320 320 321 323 324 324 322 318 317 317 319 322 326 330 332 332 331 329 326 323 321 321 322 322 318 314 311 309 308 309 310 313 314 313 313 314 318 322 326 329 332 330 325 322 328 336 344 348 352 357 1 2 4 7 12 18 23 25 26 27 30 35 40 43 40 30 331
323 323 324 325 325 325 324 324 325 324 324 323 322 323 324 326 326 325 322 322 322 323 324 325 324 320 317 317 318 320 323 327 331 333 333 330 327 324 324 325 327 328 327 323 318 314 312 311 312 315 317 318 317 317 319 322 325 329 333 336 336 335 335 339 344 350 353 358 3 8 13 15 17 20 23 25 27 29 30 33 36 42 49 53 63 217
325 324 325 326 326 324 324 325 325 325 324 323 324 325 326 326 326 326 325 324 324 324 325 326 324 320 318 319 321 322 325 328 330 331 330 327 326 326 329 332 335 335 333 330 324 318 313 312 313 315 317 319 321 325 329 331 331 333 337 341 342 342 344 350 357 2 4 7 10 15 21 25 26 26 25 26 28 29 32 34 37 40 47 49 231 232
326 325 326 326 326 325 326 326 326 325 324 324 325 326 327 327 327 327 327 327 326 326 326 326 325 322 320 321 322 324 325 327 328 329 328 327 329 333 336 339 341 341 341 339 333 325 317 311 311 313 315 318 323 331 340 344 343 341 343 346 347 348 350 358 8 16 19 19 20 23 28 30 30 29 29 29 29 30 32 35 39 42 43 41 346 248
327 326 327 327 326 326 326 327 326 326 325 326 327 327 327 328 328 328 328 328 329 328 328 327 326 324 323 324 325 327 327 327 327 327 328 331 334 338 341 343 345 347 349 349 345 335 322 313 311 314 320 325 330 337 345 351 352 352 353 354 353 352 355 6 18 27 31 32 33 34 35 34 31 30 30 30 29 29 31 33 37 41 42 41 34 347
328 327 327 327 327 326 326 326 327 326 327 327 328 328 329 330 330 329 329 329 330 330 329 328 327 326 325 326 328 330 329 328 328 329 332 336 339 341 343 345 346 349 353 359 1 355 337 319 316 326 342 350 351 350 351 356 360 1 2 1 359 358 2 13 26 35 38 40 42 43 43 41 39 37 35 31 28 28 30 32 35 39 42 43 42 32
329 329 328 327 327 327 326 327 327 328 328 328 328 328 329 330 331 332 332 332 332 331 331 330 330 329 327 328 330 330 329 329 331 334 337 340 342 343 344 345 347 349 353 1 9 16 20 14 5 6 16 17 12 6 1 3 7 8 8 7 5 5 10 21 32 40 43 44 46 47 47 46 45 43 40 34 30 29 29 31 33 36 39 42 45 44
329 330 330 329 328 328 328 329 329 329 329 329 328 328 329 330 331 333 334 334 334 334 333 334 333 331 329 329 330 331 331 333 335 337 341 343 344 344 345 347 349 350 353 358 4 11 17 22 26 32 37 34 29 23 15 12 12 12 11 11 11 13 19 29 39 45 48 48 49 49 48 47 45 43 40 35 31 29 28 28 30 33 37 41 45 47
Height
1371 1369 1367 1367 1365 1363 1359 1360 1359 1358 1354 1353 1353 1352 1350 1349 1348 1347 1346 1345 1343 1342 1340 1339 1337 1335 1334 1332 1331 1329 1329 1328 1327 1325 1324 1322 1321 1319 1318 1317 1315 1314 1313 1311 1310 1309 1307 1306 1305 1304 1303 1302 1302 1301 1300 1299 1298 1297 1296 1295 1294 1293 1292 1291 1290 1289 1289 1288 1287 1286 1285 1285 1284 1283 1282 1281 1280 1280 1279 1279 1279 1278 1278 1278 1278 1278
1369 1367 1365 1365 1364 1361 1357 1357 1357 1356 1353 1351 1349 1349 1348 1346 1344 1343 1342 1341 1340 1339 1338 1336 1334 1332 1330 1329 1327 1326 1325 1324 1323 1321 1320 1319 1317 1316 1315 1313 1312 1310 1309 1307 1306 1305 1304 1303 1302 1301 1300 1299 1298 1297 1296 1295 1294 1293 1292 1291 1290 1289 1288 1287 1287 1286 1285 1284 1283 1282 1281 1281 1280 1280 1279 1278 1277 1277 1276 1276 1275 1275 1275 1275 1275 1275
1368 1364 1363 1362 1362 1359 1356 1354 1354 1353 1352 1349 1347 1346 1345 1343 1341 1340 1339 1338 1337 1336 1334 1333 1331 1329 1327 1325 1324 1323 1321 1320 1319 1318 1317 1315 1314 1313 1311 1309 1307 1306 1304 1303 1302 1301 1300 1299 1298 1297 1296 1296 1295 1294 1293 1292 1291 1290 1289 1288 1287 1286 1285 1284 1283 1282 1281 1280 1279 1278 1278 1277 1276 1276 1275 1275 1274 1274 1273 1273 1272 1273 1273 1273 1272 1271
1367 1364 1360 1360 1359 1357 1355 1353 1351 1350 1349 1347 1345 1344 1342 1341 1339 1337 1336 1335 1334 1332 1331 1329 1327 1325 1324 1322 1320 1319 1318 1317 1316 1315 1314 1312 1310 1309 1307 1305 1303 1302 1300 1299 1298 1297 1297 1296 1295 1294 1293 1292 1291 1290 1289 1288 1287 1287 1286 1285 1284 1282 1281 1280 1279 1278 1278 1276 1275 1274 1274 1273 1272 1272 1272 1271 1271 1270 1270 1269 1269 1269 1269 1269 1268 1267
1365 1363 1360 1358 1356 1354 1353 1351 1349 1347 1346 1344 1343 1341 1339 1338 1337 1335 1334 1333 1331 1329 1327 1325 1324 1323 1321 1319 1318 1316 1315 1314 1313 1312 1310 1309 1307 1304 1303 1301 1299 1298 1297 1296 1295 1294 1293 1293 1292 1291 1290 1289 1288 1287 1286 1285 1284 1283 1282 1281 1279 1279 1277 1276 1275 1274 1274 1273 1272 1271 1270 1269 1269 1268 1268 1268 1268 1267 1266 1266 1266 1266 1266 1265 1264 1263
1363 1362 1359 1357 1355 1352 1350 1348 1347 1345 1344 1342 1340 1339 1338 1336 1335 1333 1331 1329 1328 1326 1324 1323 1321 1320 1319 1317 1315 1314 1313 1312 1310 1309 1307 1305 1303 1300 1299 1297 1296 1294 1294 1293 1292 1291 1290 1289 1289 1288 1287 1285 1284 1284 1283 1282 1280 1279 1278 1277 1276 1274 1274 1272 1271 1270 1269 1269 1268 1267 1266 1265 1265 1265 1265 1264 1264 1264 1263 1263 1262 1262 1262 1261 1260 1259
1360 1359 1358 1356 1353 1350 1349 1346 1345 1344 1342 1340 1338 1337 1336 1334 1333 1331 1329 1327 1325 1323 1321 1320 1319 1318 1316 1314 1313 1312 1310 1309 1307 1305 1303 1301 1299 1297 1295 1294 1293 1292 1291 1290 1289 1288 1288 1287 1285 1284 1283 1282 1282 1280 1279 1278 1277 1276 1274 1273 1272 1271 1269 1268 1267 1266 1265 1264 1264 1263 1263 1262 1262 1261 1261 1261 1260 1260 1259 1259 1259 1259 1258 1258 1257 1256
1358 1356 1355 1354 1351 1348 1346 1344 1343 1342 1341 1339 1337 1334 1332 1331 1329 1328 1326 1324 1323 1322 1319 1317 1316 1314 1313 1312 1311 1309 1307 1305 1303 1300 1299 1297 1295 1294 1292 1291 1290 1289 1288 1287 1286 1285 1284 1284 1282 1281 1280 1279 1278 1277 1276 1274 1273 1271 1270 1269 1268 1266 1265 1264 1263 1262 1261 1261 1260 1259 1259 1259 1258 1258 1258 1257 1257 1256 1256 1256 1255 1255 1255 1254 1254 1253
1357 1354 1351 1350 1349 1346 1343 1342 1341 1341 1339 1338 1336 1333 1330 1328 1325 1324 1323 1322 1321 1320 1318 1316 1313 1311 1309 1309 1308 1306 1304 1302 1299 1297 1295 1294 1292 1291 1289 1288 1287 1286 1285 1284 1284 1283 1282 1281 1280 1279 1277 1276 1274 1273 1271 1269 1268 1267 1266 1264 1264 1262 1261 1260 1259 1259 1258 1257 1256 1256 1255 1255 1254 1254 1254 1254 1253 1253 1253 1253 1252 1252 1251 1251 1250 1249
1355 1352 1349 1347 1346 1345 1343 1341 1339 1339 1338 1336 1334 1333 1330 1327 1324 1321 1319 1317 1317 1316 1316 1314 1311 1308 1306 1305 1304 1302 1300 1298 1296 1294 1293 1291 1290 1288 1287 1286 1284 1283 1282 1281 1280 1279 1279 1278 1277 1275 1274 1272 1270 1268 1266 1265 1264 1263 1261 1260 1259 1259 1258 1257 1256 1255 1254 1254 1253 1253 1252 1252 1251 1250 1250 1250 1250 1250 1250 1249 1249 1249 1248 1247 1246 1246
1352 1349 1348 1346 1344 1343 1342 1340 1338 1336 1336 1334 1332 1330 1329 1327 1325 1321 1317 1314 1312 1312 1311 1310 1309 1306 1304 1301 1300 1299 1297 1294 1292 1290 1289 1288 1287 1285 1284 1283 1281 1280 1279 1278 1277 1276 1275 1274 1273 1271 1269 1267 1265 1264 1262 1260 1259 1259 1258 1257 1256 1255 1254 1254 1253 1252 1251 1250 1250 1249 1249 1248 1247 1247 1247 1247 1247 1247 1246 1246 1245 1245 1244 1244 1243 1243
1349 1348 1346 1344 1343 1341 1340 1338 1337 1335 1334 1332 1330 1327 1325 1325 1324 1321 1317 1313 1310 1308 1307 1306 1304 1303 1302 1299 1297 1295 1294 1291 1289 1286 1285 1284 1283 1282 1281 1279 1278 1277 1276 1275 1274 1272 1271 1270 1268 1267 1265 1263 1261 1259 1258 1257 1256 1255 1254 1254 1253 1252 1251 1250 1249 1249 1248 1247 1247 1246 1245 1244 1244 1244 1243 1243 1244 1243 1243 1242 1242 1241 1241 1240 1240 1240
1348 1346 1344 1343 1341 1340 1339 1337 1335 1333 1332 1331 1329 1326 1323 1321 1320 1319 1316 1312 1309 1307 1305 1302 1300 1299 1299 1298 1296 1293 1291 1288 1285 1284 1282 1282 1281 1280 1278 1276 1275 1274 1272 1271 1269 1267 1266 1265 1264 1262 1260 1259 1257 1256 1255 1254 1253 1252 1251 1250 1249 1249 1248 1247 1246 1246 1245 1244 1244 1243 1242 1241 1241 1240 1240 1240 1240 1239 1239 1239 1238 1238 1238 1238 1237 1237
1346 1344 1343 1341 1340 1339 1337 1336 1334 1332 1330 1329 1327 1325 1322 1319 1318 1316 1314 1310 1307 1305 1304 1301 1298 1295 1295 1294 1293 1291 1289 1286 1283 1281 1280 1279 1279 1278 1277 1274 1272 1270 1269 1267 1265 1263 1262 1261 1260 1258 1256 1255 1254 1253 1252 1250 1249 1249 1248 1247 1246 1245 1245 1244 1244 1243 1242 1241 1240 1239 1239 1239 1238 1238 1237 1237 1236 1236 1236 1235 1235 1235 1234 1234 1234 1234
1345 1343 1342 1340 1338 1337 1336 1334 1333 1330 1328 1327 1325 1323 1320 1317 1315 1314 1312 1308 1305 1303 1301 1298 1295 1293 1292 1292 1291 1289 1287 1284 1282 1280 1278 1277 1276 1276 1275 1273 1269 1267 1265 1264 1262 1260 1259 1259 1257 1255 1253 1252 1251 1249 1249 1247 1246 1245 1244 1244 1243 1243 1242 1242 1241 1240 1239 1238 1237 1236 1236 1235 1235 1234 1234 1234 1233 1233 1232 1232 1232 1231 1231 1231 1231 1230
1344 1342 1340 1338 1336 1335 1334 1333 1331 1329 1326 1324 1322 1320 1318 1315 1313 1312 1309 1306 1303 1301 1299 1296 1293 1290 1288 1289 1289 1289 1286 1284 1280 1278 1276 1274 1273 1274 1274 1271 1267 1264 1262 1261 1259 1258 1256 1255 1254 1252 1250 1249 1248 1247 1246 1245 1244 1243 1242 1241 1240 1240 1239 1239 1237 1236 1235 1234 1234 1233 1233 1232 1232 1231 1231 1230 1230 1229 1229 1229 1228 1228 1228 1227 1227 1227
1343 1341 1339 1337 1335 1333 1332 1331 1329 1327 1324 1322 1319 1318 1316 1314 1312 1309 1308 1305 1303 1300 1298 1296 1293 1289 1285 1284 1286 1287 1285 1283 1279 1276 1274 1271 1270 1270 1271 1269 1265 1261 1259 1258 1257 1255 1254 1252 1251 1249 1248 1246 1245 1244 1243 1242 1241 1240 1239 1238 1237 1237 1236 1234 1234 1232 1232 1231 1230 1230 1229 1229 1229 1228 1227 1227 1226 1226 1225 1225 1225 1224 1224 1224 1224 1223
1341 1340 1338 1336 1334 1331 1329 1328 1326 1324 1322 1320 1317 1315 1314 1312 1310 1308 1306 1304 1302 1299 1297 1295 1293 1290 1286 1283 1282 1284 1284 1282 1278 1274 1271 1268 1266 1266 1267 1266 1263 1259 1257 1255 1254 1253 1251 1250 1248 1247 1245 1244 1243 1242 1241 1240 1239 1237 1236 1235 1234 1233 1232 1231 1230 1229 1228 1227 1226 1226 1226 1225 1225 1224 1224 1223 1223 1222 1222 1222 1221 1221 1221 1220 1220 1220
1339 1338 1337 1334 1332 1329 1327 1325 1324 1322 1320 1318 1315 1313 1311 1309 1308 1306 1305 1303 1301 1299 1296 1294 1291 1289 1286 1283 1281 1281 1282 1280 1277 1273 1269 1265 1263 1263 1264 1263 1260 1257 1254 1252 1251 1249 1248 1247 1245 1244 1243 1241 1240 1239 1239 1237 1235 1234 1233 1232 1230 1229 1229 1227 1226 1225 1224 1224 1223 1223 1222 1222 1221 1221 1220 1220 1219 1219 1218 1218 1218 1217 1217 1217 1216 1216
1337 1336 1335 1333 1330 1327 1324 1323 1322 1320 1318 1316 1314 1312 1309 1307 1305 1304 1303 1301 1299 1297 1295 1293 1289 1287 1285 1282 1279 1279 1279 1278 1275 1271 1267 1264 1261 1260 1261 1260 1257 1254 1251 1249 1248 1247 1245 1244 1242 1241 1240 1240 1239 1238 1236 1234 1233 1231 1230 1229 1227 1226 1225 1224 1223 1222 1221 1220 1220 1219 1219 1218 1218 1217 1217 1216 1216 1215 1214 1214 1214 1214 1213 1213 1213 1213
1335 1333 1332 1331 1329 1326 1323 1320 1319 1318 1317 1315 1312 1310 1307 1305 1303 1301 1299 1298 1296 1294 1292 1290 1288 1285 1283 1281 1278 1277 1276 1276 1274 1270 1266 1262 1259 1258 1258 1257 1255 1252 1249 1246 1245 1244 1243 1242 1240 1239 1239 1238 1236 1235 1234 1232 1230 1229 1227 1226 1224 1223 1221 1220 1219 1219 1218 1217 1217 1216 1215 1215 1214 1214 1213 1213 1212 1211 1211 1210 1210 1209 1209 1209 1209 1209
1334 1331 1329 1328 1327 1324 1321 1319 1318 1317 1315 1314 1311 1309 1306 1304 1301 1299 1297 1296 1294 1292 1290 1288 1285 1283 1281 1279 1276 1275 1275 1274 1272 1269 1265 1260 1256 1255 1255 1255 1253 1250 1247 1244 1243 1242 1241 1240 1238 1237 1236 1235 1234 1232 1230 1229 1228 1226 1224 1223 1221 1220 1219 1217 1216 1215 1215 1214 1213 1213 1212 1211 1211 1210 1209 1209 1208 1207 1206 1206 1205 1205 1205 1205 1205 1205
1332 1329 1327 1325 1324 1323 1320 1319 1317 1315 1313 1312 1310 1307 1305 1303 1300 1298 1295 1294 1292 1290 1288 1285 1283 1281 1279 1277 1274 1273 1272 1272 1270 1268 1264 1260 1255 1253 1253 1253 1251 1248 1244 1243 1242 1240 1239 1238 1236 1234 1233 1232 1230 1229 1227 1226 1224 1223 1222 1220 1219 1218 1216 1215 1214 1213 1212 1211 1210 1209 1209 1208 1207 1206 1205 1204 1204 1203 1202 1201 1201 1201 1201 1201 1201 1202
1330 1328 1325 1324 1323 1321 1319 1317 1315 1313 1311 1309 1308 1305 1304 1301 1299 1297 1295 1293 1290 1288 1285 1282 1280 1278 1276 1274 1273 1271 1270 1269 1269 1267 1263 1259 1254 1252 1251 1250 1249 1246 1243 1241 1240 1239 1237 1234 1233 1231 1229 1228 1227 1226 1224 1223 1222 1220 1219 1218 1217 1215 1214 1213 1212 1210 1209 1208 1207 1206 1205 1204 1203 1202 1201 1200 1199 1199 1198 1198 1198 1198 1198 1197 1197 1197
1329 1327 1325 1323 1321 1320 1318 1316 1314 1312 1310 1308 1305 1303 1301 1299 1297 1295 1293 1291 1289 1286 1283 1281 1278 1276 1274 1273 1271 1269 1268 1267 1267 1265 1262 1258 1254 1251 1250 1249 1247 1244 1241 1239 1238 1237 1234 1231 1229 1228 1226 1225 1224 1223 1221 1220 1219 1218 1216 1215 1214 1213 1212 1210 1209 1208 1207 1206 1204 1203 1202 1201 1200 1199 1198 1197 1196 1195 1194 1194 1194 1194 1194 1194 1193 1193
1327 1325 1324 1322 1319 1318 1316 1314 1312 1310 1308 1306 1304 1301 1299 1297 1294 1292 1290 1288 1287 1285 1282 1279 1277 1274 1272 1271 1269 1266 1265 1265 1264 1263 1261 1257 1253 1249 1247 1247 1246 1243 1239 1236 1235 1234 1232 1229 1226 1225 1224 1222 1220 1219 1218 1217 1216 1215 1214 1212 1211 1210 1209 1208 1206 1205 1204 1203 1201 1200 1199 1198 1197 1195 1194 1193 1192 1192 1191 1191 1190 1190 1190 1190 1189 1189
1325 1323 1321 1319 1317 1315 1313 1311 1309 1307 1305 1304 1302 1300 1298 1295 1293 1290 1288 1286 1285 1284 1281 1278 1275 1272 1270 1269 1267 1264 1263 1262 1262 1261 1259 1256 1252 1248 1245 1245 1244 1241 1238 1234 1233 1231 1229 1227 1224 1222 1220 1219 1217 1216 1215 1214 1213 1212 1210 1209 1209 1207 1206 1205 1204 1202 1201 1199 1198 1196 1195 1194 1193 1191 1190 1189 1189 1188 1188 1187 1187 1187 1186 1186 1186 1185
1322 1320 1318 1316 1314 1312 1310 1308 1306 1304 1302 1300 1299 1298 1296 1294 1292 1289 1286 1285 1284 1282 1280 1277 1274 1271 1269 1267 1264 1262 1261 1260 1259 1258 1257 1255 1251 1247 1244 1243 1242 1240 1237 1233 1229 1228 1227 1224 1222 1219 1218 1216 1214 1213 1212 1211 1210 1209 1208 1207 1205 1204 1203 1201 1199 1198 1197 1195 1194 1192 1191 1189 1188 1187 1186 1186 1185 1184 1184 1183 1183 1182 1182 1182 1181 1181
1319 1317 1315 1313 1311 1309 1306 1304 1302 1301 1299 1298 1297 1295 1294 1293 1290 1288 1285 1283 1282 1280 1278 1275 1274 1271 1268 1265 1262 1260 1259 1258 1258 1257 1256 1253 1249 1246 1244 1242 1240 1238 1236 1231 1227 1224 1223 1221 1220 1218 1216 1214 1213 1211 1210 1208 1207 1206 1204 1203 1201 1199 1198 1197 1195 1194 1192 1191 1189 1188 1187 1186 1184 1184 1183 1182 1181 1179 1179 1178 1178 1178 1177 1177 1176 1176
1315 1313 1311 1309 1307 1305 1304 1301 1299 1298 1296 1295 1294 1293 1292 1290 1289 1286 1284 1282 1281 1279 1276 1274 1272 1270 1267 1264 1261 1258 1256 1256 1256 1256 1254 1252 1248 1244 1242 1241 1239 1237 1235 1231 1226 1221 1218 1217 1218 1217 1215 1213 1211 1209 1208 1206 1204 1202 1200 1198 1197 1195 1194 1192 1191 1189 1188 1187 1185 1184 1183 1182 1181 1179 1178 1177 1175 1174 1173 1173 1173 1173 1173 1172 1172 1171
1312 1310 1308 1306 1304 1303 1301 1299 1297 1295 1294 1293 1291 1290 1289 1288 1286 1284 1283 1281 1279 1278 1275 1273 1270 1269 1267 1264 1261 1257 1254 1253 1253 1254 1253 1250 1246 1243 1241 1239 1237 1235 1234 1233 1228 1222 1215 1212 1213 1214 1213 1211 1209 1207 1205 1203 1201 1199 1197 1195 1193 1192 1190 1189 1188 1187 1185 1184 1182 1181 1179 1178 1176 1175 1173 1172 1170 1169 1169 1169 1169 1169 1169 1168 1168 1167
1310 1308 1306 1304 1302 1300 1299 1297 1295 1294 1292 1290 1289 1288 1287 1285 1284 1283 1281 1279 1278 1276 1274 1271 1269 1267 1265 1264 1261 1257 1254 1251 1251 1252 1251 1249 1244 1241 1240 1238 1236 1234 1233 1232 1230 1225 1219 1212 1209 1209 1209 1208 1206 1204 1202 1200 1199 1196 1194 1193 1190 1189 1188 1187 1185 1183 1181 1180 1178 1176 1175 1173 1171 1170 1168 1167 1166 1165 1164 1164 1164 1165 1165 1164 1164 1163
1309 1306 1304 1302 1300 1299 1297 1295 1294 1292 1290 1289 1287 1286 1285 1284 1282 1281 1279 1278 1276 1274 1272 1270 1268 1265 1263 1261 1259 1256 1253 1251 1250 1250 1249 1247 1244 1240 1238 1237 1234 1232 1231 1230 1228 1226 1222 1215 1210 1207 1205 1204 1203 1201 1199 1198 1196 1194 1192 1190 1188 1186 1184 1183 1182 1179 1177 1175 1174 1172 1170 1168 1167 1165 1164 1163 1162 1161 1160 1160 1160 1160 1161 1160 1160 1159
1306 1304 1302 1300 1299 1297 1295 1294 1292 1291 1289 1287 1286 1284 1283 1282 1280 1279 1277 1276 1274 1273 1271 1269 1267 1264 1261 1259 1256 1254 1251 1250 1249 1248 1247 1245 1242 1239 1237 1235 1233 1231 1229 1227 1225 1223 1220 1216 1212 1208 1204 1201 1199 1199 1197 1195 1194 1192 1190 1188 1186 1183 1181 1179 1178 1176 1174 1172 1170 1168 1166 1164 1163 1161 1160 1159 1158 1157 1156 1156 1156 1156 1156 1156 1156 1156
1304 1302 1301 1299 1297 1295 1294 1292 1290 1289 1288 1286 1284 1283 1281 1280 1278 1276 1275 1273 1272 1270 1269 1267 1265 1263 1261 1258 1255 1252 1249 1248 1247 1246 1245 1244 1241 1238 1235 1233 1231 1230 1228 1225 1223 1221 1218 1215 1212 1209 1205 1200 1197 1195 1195 1193 1191 1189 1187 1185 1183 1181 1178 1176 1174 1173 1170 1168 1166 1164 1162 1160 1159 1157 1156 1154 1154 1153 1152 1152 1152 1152 1152 1152 1153 1153
1303 1301 1299 1298 1296 1294 1292 1291 1289 1287 1286 1284 1282 1281 1279 1278 1276 1274 1273 1271 1269 1268 1266 1264 1263 1261 1259 1257 1254 1251 1248 1246 1244 1244 1243 1241 1239 1237 1234 1231 1229 1228 1226 1224 1221 1219 1217 1213 1210 1208 1205 1201 1197 1193 1191 1189 1188 1187 1184 1182 1180 1178 1176 1174 1172 1170 1168 1165 1163 1161 1159 1157 1155 1154 1152 1151 1150 1149 1148 1148 1148 1148 1148 1148 1149 1149
1302 1300 1299 1297 1295 1294 1291 1289 1288 1286 1284 1282 1280 1279 1277 1275 1274 1272 1270 1269 1267 1265 1264 1262 1260 1258 1257 1255 1253 1250 1247 1245 1243 1242 1240 1239 1238 1236 1233 1230 1228 1227 1225 1223 1220 1218 1216 1212 1209 1206 1204 1201 1198 1193 1189 1186 1184 1184 1182 1179 1177 1175 1173 1171 1169 1167 1165 1163 1160 1158 1156 1154 1153 1151 1149 1148 1147 1146 1145 1144 1144 1144 1144 1144 1144 1145
1302 1300 1298 1296 1294 1292 1290 1288 1286 1284 1283 1281 1279 1277 1275 1274 1272 1270 1268 1266 1264 1263 1261 1259 1257 1255 1254 1252 1250 1248 1245 1243 1241 1239 1238 1237 1235 1234 1231 1228 1226 1224 1224 1222 1220 1217 1215 1212 1208 1205 1202 1199 1196 1193 1189 1186 1183 1181 1179 1176 1174 1172 1170 1169 1167 1165 1163 1161 1159 1156 1154 1153 1151 1149 1147 1145 1144 1143 1142 1141 1140 1140 1140 1140 1141 1141
1301 1299 1297 1295 1293 1291 1289 1287 1285 1283 1281 1279 1277 1275 1274 1271 1269 1268 1266 1264 1262 1260 1259 1257 1254 1253 1251 1249 1247 1245 1243 1241 1239 1238 1236 1234 1233 1232 1229 1227 1224 1223 1221 1220 1219 1217 1214 1212 1209 1205 1202 1198 1194 1190 1188 1186 1184 1181 1177 1174 1171 1169 1168 1167 1165 1163 1161 1159 1157 1155 1153 1151 1149 1147 1145 1144 1142 1141 1139 1138 1137 1137 1137 1137 1137 1137
1300 1298 1296 1294 1292 1290 1288 1286 1284 1282 1280 1278 1276 1274 1272 1270 1268 1266 1264 1262 1260 1259 1256 1254 1253 1250 1248 1246 1244 1243 1241 1239 1238 1236 1234 1233 1231 1229 1228 1226 1223 1221 1220 1219 1217 1216 1214 1211 1208 1205 1203 1199 1194 1190 1186 1185 1183 1181 1178 1174 1170 1168 1166 1165 1163 1161 1159 1158 1156 1154 1151 1149 1147 1146 1144 1142 1141 1139 1138 1137 1135 1135 1134 1134 1134 1134
1299 1297 1294 1293 1290 1289 1287 1285 1283 1281 1279 1277 1274 1272 1270 1268 1266 1264 1262 1260 1258 1256 1254 1252 1250 1248 1246 1244 1242 1240 1239 1237 1235 1234 1232 1230 1229 1227 1226 1224 1223 1221 1219 1217 1216 1214 1213 1210 1207 1204 1201 1198 1194 1190 1187 1185 1183 1181 1179 1176 1172 1168 1165 1163 1162 1160 1159 1156 1154 1153 1150 1148 1146 1144 1143 1141 1139 1138 1137 1136 1134 1134 1133 1132 1132 1132
1298 1296 1294 1291 1289 1288 1286 1284 1281 1279 1278 1276 1274 1271 1269 1267 1265 1263 1260 1258 1256 1254 1253 1250 1248 1245 1243 1241 1239 1238 1237 1235 1234 1232 1230 1229 1227 1226 1224 1224 1222 1220 1218 1216 1214 1212 1210 1208 1205 1202 1199 1196 1194 1190 1187 1184 1182 1180 1179 1176 1172 1168 1164 1162 1161 1160 1158 1156 1154 1152 1150 1148 1146 1144 1142 1140 1139 1137 1136 1135 1134 1132 1132 1131 1130 1130
1297 1295 1293 1290 1289 1287 1284 1282 1280 1278 1276 1274 1272 1270 1268 1266 1264 1262 1260 1257 1255 1253 1251 1249 1246 1244 1241 1239 1237 1235 1234 1233 1232 1230 1229 1227 1226 1225 1224 1222 1221 1219 1217 1214 1212 1209 1206 1204 1203 1200 1198 1196 1194 1191 1188 1184 1181 1179 1178 1176 1174 1170 1166 1162 1160 1159 1157 1155 1153 1151 1149 1148 1145 1144 1142 1140 1138 1136 1135 1134 1133 1131 1130 1130 1129 1129
1296 1294 1292 1289 1288 1285 1283 1281 1279 1277 1275 1273 1271 1269 1267 1265 1263 1261 1259 1256 1254 1252 1249 1247 1245 1243 1240 1238 1235 1234 1232 1231 1229 1228 1227 1226 1225 1224 1223 1220 1218 1216 1215 1213 1210 1207 1204 1202 1200 1199 1197 1196 1194 1191 1188 1184 1181 1179 1177 1175 1174 1172 1169 1165 1162 1159 1157 1155 1153 1151 1149 1148 1145 1143 1141 1139 1138 1136 1134 1133 1131 1130 1129 1128 1128 1127
1295 1293 1291 1289 1286 1284 1282 1280 1278 1276 1274 1272 1269 1268 1266 1264 1262 1260 1258 1255 1253 1250 1249 1246 1244 1242 1239 1237 1235 1232 1230 1228 1227 1226 1225 1225 1224 1223 1220 1218 1216 1214 1213 1210 1208 1206 1204 1201 1199 1198 1197 1195 1193 1191 1188 1185 1182 1179 1177 1174 1173 1171 1168 1166 1163 1161 1158 1156 1154 1152 1150 1148 1145 1143 1141 1139 1137 1136 1134 1132 1130 1129 1128 1127 1126 1126
1294 1292 1289 1287 1285 1284 1281 1279 1277 1275 1273 1271 1269 1266 1264 1263 1261 1259 1257 1255 1252 1250 1248 1246 1244 1242 1239 1236 1234 1232 1229 1227 1226 1225 1224 1223 1222 1220 1218 1217 1215 1213 1211 1209 1207 1205 1203 1201 1199 1198 1196 1194 1193 1190 1188 1185 1183 1180 1177 1174 1172 1170 1168 1165 1164 1161 1159 1157 1154 1152 1150 1148 1146 1144 1142 1139 1137 1136 1134 1132 1130 1129 1127 1126 1125 1124
1293 1291 1289 1286 1284 1283 1280 1279 1277 1274 1272 1270 1268 1265 1264 1262 1260 1258 1256 1254 1252 1249 1247 1245 1243 1241 1239 1237 1234 1232 1229 1227 1226 1224 1223 1221 1219 1218 1216 1215 1213 1212 1210 1208 1206 1204 1202 1201 1199 1198 1196 1194 1192 1189 1187 1185 1183 1181 1178 1175 1173 1170 1168 1166 1164 1162 1160 1158 1156 1153 1151 1148 1146 1144 1142 1140 1138 1136 1134 1132 1130 1128 1126 1125 1124 1123
1292 1290 1288 1286 1284 1282 1279 1278 1276 1274 1271 1269 1266 1264 1263 1261 1259 1257 1255 1253 1251 1249 1246 1244 1242 1240 1238 1236 1234 1232 1231 1229 1227 1224 1222 1220 1218 1216 1215 1214 1212 1211 1209 1207 1205 1204 1202 1201 1199 1198 1197 1195 1192 1190 1187 1185 1183 1181 1179 1176 1174 1171 1169 1167 1164 1163 1161 1159 1157 1154 1152 1150 1148 1145 1143 1140 1138 1136 1134 1131 1129 1128 1126 1124 1123 1122
1292 1290 1288 1285 1283 1281 1279 1277 1275 1273 1270 1268 1265 1263 1261 1260 1259 1257 1254 1252 1250 1248 1246 1244 1242 1239 1237 1235 1234 1232 1231 1229 1227 1224 1222 1220 1218 1216 1214 1213 1211 1210 1208 1207 1205 1204 1202 1200 1199 1198 1197 1195 1193 1190 1188 1185 1184 1181 1179 1177 1175 1173 1170 1168 1165 1164 1162 1159 1158 1155 1154 1151 1149 1147 1144 1141 1139 1137 1134 1132 1129 1127 1125 1124 1122 1121
1291 1289 1287 1285 1283 1280 1278 1276 1274 1272 1269 1267 1265 1262 1260 1258 1257 1255 1254 1251 1249 1248 1246 1244 1241 1239 1237 1235 1234 1232 1230 1228 1226 1224 1222 1220 1218 1216 1214 1213 1211 1209 1207 1206 1204 1203 1201 1200 1199 1198 1197 1195 1193 1191 1189 1186 1184 1181 1179 1178 1176 1174 1171 1169 1167 1165 1163 1161 1159 1156 1154 1152 1150 1147 1145 1143 1140 1138 1135 1133 1130 1128 1125 1124 1122 1121
1290 1288 1286 1284 1282 1280 1278 1275 1274 1271 1269 1267 1264 1262 1260 1257 1255 1254 1252 1250 1249 1247 1245 1243 1241 1239 1238 1236 1234 1232 1230 1228 1226 1224 1222 1220 1218 1216 1215 1213 1212 1210 1208 1206 1204 1203 1201 1200 1199 1198 1197 1196 1194 1193 1190 1188 1185 1182 1180 1178 1176 1174 1173 1170 1168 1166 1164 1162 1160 1158 1156 1153 1151 1149 1146 1144 1142 1139 1137 1134 1132 1129 1126 1124 1122 1120